カタログに戻る

COSMOS 1275 DEB

運用中PO
NORAD 12782·DEBRIS·🇷🇺 Russia

打ち上げ Jun 4, 1981 から Plesetsk Cosmodrome

Loading…

次のパス (今後24時間)

TLE

最新Source: Space-Track

元期: Sep 14, 2026, 08:57 UTC

1 12782U 81053DY  26257.37347867  .00000317  00000-0  31417-3 0  9994
2 12782  82.9985  41.8771 0074110 338.8929  49.4416 13.74350453245550

AllMySatでCOSMOS 1275 DEBをリアルタイム追跡

Download on the App Store